Flag for Israel Weather past 2 weeks in Rishon LeZion, Israel

Now
66 °F

Scattered clouds.


Feels Like: 66 °F
Forecast: 51 / 65 °F
Wind: 8 mph from Northwest

Location: Ben Gurion International Airport

Current Time: Feb 28, 2015 at 3:21:49 PM

Latest Report: Feb 28, 2015 at 2:50 PM


Visibility: N/A

Pressure: 30.09 "Hg

Humidity: 52%

Dew point: 48 °F

Location of Rishon LeZionLocation

Historic Weather in Rishon LeZion — Graph

°F

Rishon LeZion temperature yesterday

Maximum temperature yesterday: 86 °F (at 1:50 PM)
Minimum temperature yesterday: 59 °F (at 10:50 PM)
Average temperature yesterday: 72 °F

Past Weeks' High & Low Weather Summary

 TemperatureHumidityPressure
High86 °F (Feb 27, 1:50 PM)94% (Feb 14, 4:50 AM)30.21 "Hg (Feb 14, 4:50 AM)
Low41 °F (Feb 19, 11:20 PM)19% (Feb 27, 11:50 AM)29.71 "Hg (Feb 20, 4:50 AM)
Average57 °F68%30.00 "Hg
* Reported Feb 13 2:20 PM — Feb 28 2:20 PM, Rishon LeZion, Weather by CustomWeather, © 2015

Note: Actual official high and low records may vary slightly from our data, if they occured in-between our weather recording intervals... More about our weather records

Advertising

Rishon LeZion weather history for previous 24 hours

 ConditionsComfort  
Time TempWeatherWind HumidityBarometerVisibility
2:20 PM
Sat, Feb 28
66 °FScattered clouds.12 mph52%30.09 "HgN/A
1:50 PM64 °FScattered clouds.13 mph60%30.09 "HgN/A
1:20 PM64 °FScattered clouds.10 mph60%30.09 "HgN/A
12:50 PM66 °FScattered clouds.12 mph56%30.09 "HgN/A
12:20 PM64 °FScattered clouds.12 mph60%30.09 "HgN/A
11:50 AM64 °FScattered clouds.14 mph64%30.09 "HgN/A
11:20 AM64 °FScattered clouds.14 mph64%30.09 "HgN/A
10:50 AM66 °FScattered clouds.12 mph60%30.09 "HgN/A
10:20 AM66 °FScattered clouds.12 mph64%30.09 "HgN/A
9:50 AM64 °FScattered clouds.9 mph64%30.09 "HgN/A
9:20 AM64 °FScattered clouds.12 mph68%30.09 "HgN/A
8:50 AM63 °FScattered clouds.10 mph73%30.09 "HgN/A
8:20 AM64 °FScattered clouds.7 mph73%30.09 "HgN/A
7:50 AM63 °FPassing clouds.3 mph77%30.09 "Hg5 mi
7:20 AM61 °FPassing clouds.3 mph83%30.07 "Hg6 mi
6:50 AM61 °FPassing clouds.3 mph83%30.07 "Hg6 mi
6:20 AM61 °FScattered clouds.5 mph83%30.07 "HgN/A
5:50 AM61 °FPassing clouds.6 mph83%30.07 "HgN/A
5:20 AM61 °FPassing clouds.8 mph83%30.04 "HgN/A
4:50 AM61 °FPassing clouds.6 mph83%30.01 "HgN/A
4:20 AM61 °FPassing clouds.8 mph83%30.01 "HgN/A
3:50 AM61 °FClear.12 mph77%29.98 "Hg10 mi
3:20 AM55 °FClear.10 mph72%29.95 "Hg10 mi
2:20 AM59 °FClear.5 mph59%29.92 "Hg10 mi
1:50 AM59 °FClear.5 mph63%29.92 "Hg10 mi
1:20 AM59 °FClear.6 mph63%29.92 "Hg10 mi
12:50 AM59 °FClear.1 mph68%29.92 "Hg10 mi
12:20 AM61 °FClear.3 mph59%29.92 "Hg10 mi
11:50 PM
Fri, Feb 27
61 °FClear.5 mph59%29.92 "Hg10 mi
11:20 PM63 °FClear.2 mph64%29.92 "Hg10 mi
10:50 PM59 °FClear.1 mph72%29.95 "Hg10 mi
10:20 PM61 °FClear.7 mph68%29.92 "Hg10 mi
9:50 PM63 °FClear.1 mph64%29.92 "Hg10 mi
9:20 PM64 °FClear.5 mph56%29.92 "Hg10 mi
8:50 PM64 °FClear.3 mph56%29.92 "Hg10 mi
8:20 PM64 °FClear.5 mph60%29.92 "Hg10 mi
7:50 PM66 °FClear.5 mph56%29.92 "Hg10 mi
7:20 PM70 °FClear.6 mph46%29.92 "Hg10 mi
6:50 PM72 °FClear.2 mph41%29.92 "Hg10 mi
6:20 PM73 °FClear.5 mph38%29.92 "Hg10 mi
5:50 PM75 °FClear.5 mph39%29.92 "Hg10 mi
5:20 PM79 °FSunny.5 mph28%29.92 "Hg10 mi
4:50 PM81 °FSunny.6 mph28%29.89 "Hg10 mi
4:20 PM82 °FSunny.8 mph26%29.89 "Hg10 mi
3:50 PM84 °FSunny.6 mph27%29.89 "Hg10 mi
3:20 PM86 °FSunny.8 mph22%29.89 "Hg10 mi
Weather by CustomWeather, © 2015

See weather overviewHow to use our weather pages